Time,TemperatureF,DewpointF,PressureIn,WindDirection,WindDirectionDegrees,WindSpeedMPH,WindSpeedGustMPH,Humidity,HourlyPrecipIn,Conditions,Clouds,dailyrainin,SoftwareType,DateUTC
2013-08-15 00:01:00,77.0,76.1,30.04,NE,45,2.0,-999.0,97,-99.99,,,-99.99,meteohub,2013-08-15 04:01:00,
2013-08-15 00:02:00,77.0,74.5,30.04,NE,45,3.0,-999.0,92,-99.99,,,-99.99,meteohub,2013-08-15 04:02:00,
2013-08-15 00:04:00,77.0,74.5,30.04,NE,45,2.0,-999.0,92,-99.99,,,-99.99,meteohub,2013-08-15 04:04:00,
2013-08-15 00:10:00,77.0,74.5,30.04,NE,45,1.0,-999.0,92,-99.99,,,-99.99,meteohub,2013-08-15 04:10:00,
2013-08-15 00:15:00,75.9,75.0,30.04,NNE,22,0.0,-999.0,97,-99.99,,,-99.99,meteohub,2013-08-15 04:15:00,
2013-08-15 00:20:00,75.9,73.4,30.04,NNE,22,0.0,-999.0,92,-99.99,,,-99.99,meteohub,2013-08-15 04:20:00,
2013-08-15 00:25:00,75.9,73.4,30.04,NNE,22,0.0,-999.0,92,-99.99,,,-99.99,meteohub,2013-08-15 04:25:00,
2013-08-15 00:30:00,75.9,73.4,30.04,NNE,22,0.0,-999.0,92,-99.99,,,-99.99,meteohub,2013-08-15 04:30:00,
2013-08-15 00:35:00,75.9,73.8,30.04,North,0,2.0,-999.0,93,-99.99,,,-99.99,meteohub,2013-08-15 04:35:00,
2013-08-15 00:40:00,75.9,73.8,30.04,North,0,0.0,-999.0,93,-99.99,,,-99.99,meteohub,2013-08-15 04:40:00,
2013-08-15 00:45:00,75.9,73.8,30.04,NE,45,0.0,-999.0,93,-99.99,,,-99.99,meteohub,2013-08-15 04:45:00,
2013-08-15 00:50:00,77.0,74.8,30.04,NE,45,2.0,-999.0,93,-99.99,,,-99.99,meteohub,2013-08-15 04:50:00,
2013-08-15 00:55:00,77.0,74.5,30.04,NE,45,5.0,-999.0,92,-99.99,,,-99.99,meteohub,2013-08-15 04:55:00,
2013-08-15 01:00:00,77.0,74.5,30.04,NE,45,3.0,-999.0,92,-99.99,,,-99.99,meteohub,2013-08-15 05:00:00,
2013-08-15 01:06:00,77.0,74.8,30.04,NE,45,1.0,-999.0,93,-99.99,,,-99.99,meteohub,2013-08-15 05:06:00,
2013-08-15 01:11:00,75.9,75.4,30.04,NE,45,3.0,-999.0,98,-99.99,,,-99.99,meteohub,2013-08-15 05:11:00,
2013-08-15 01:16:00,77.0,74.8,30.04,SE,135,6.0,-999.0,93,-99.99,,,-99.99,meteohub,2013-08-15 05:16:00,
2013-08-15 01:21:00,78.1,75.6,30.04,South,180,8.0,-999.0,92,-99.99,,,-99.99,meteohub,2013-08-15 05:21:00,
2013-08-15 01:26:00,78.1,75.6,30.04,South,180,11.0,-999.0,92,-99.99,,,-99.99,meteohub,2013-08-15 05:26:00,
2013-08-15 01:31:00,77.0,73.8,30.04,SW,225,8.0,-999.0,90,-99.99,,,-99.99,meteohub,2013-08-15 05:31:00,
2013-08-15 01:36:00,75.9,73.4,30.04,SW,225,7.0,-999.0,92,-99.99,,,-99.99,meteohub,2013-08-15 05:36:00,
2013-08-15 01:41:00,77.0,74.8,30.04,SSW,202,9.0,-999.0,93,-99.99,,,-99.99,meteohub,2013-08-15 05:41:00,
2013-08-15 01:46:00,77.0,75.2,30.04,SW,225,12.0,-999.0,94,-99.99,,,-99.99,meteohub,2013-08-15 05:46:00,
2013-08-15 01:51:00,77.0,74.8,30.04,West,270,7.0,-999.0,93,-99.99,,,-99.99,meteohub,2013-08-15 05:51:00,
2013-08-15 01:56:00,75.9,74.1,30.04,SSW,202,12.0,-999.0,94,-99.99,,,-99.99,meteohub,2013-08-15 05:56:00,
2013-08-15 02:02:00,75.9,73.0,30.03,WSW,247,10.0,-999.0,91,-99.99,,,-99.99,meteohub,2013-08-15 06:02:00,
2013-08-15 02:07:00,77.0,75.2,30.01,SW,225,6.0,-999.0,94,-99.99,,,-99.99,meteohub,2013-08-15 06:07:00,
2013-08-15 02:12:00,78.1,74.3,30.01,South,180,17.0,-999.0,88,-99.99,,,-99.99,meteohub,2013-08-15 06:12:00,
2013-08-15 02:17:00,77.0,75.2,30.03,SE,135,19.0,-999.0,94,-99.99,,,-99.99,meteohub,2013-08-15 06:17:00,
2013-08-15 02:22:00,75.9,74.3,30.03,SE,135,10.0,-999.0,95,-99.99,,,-99.99,meteohub,2013-08-15 06:22:00,
2013-08-15 02:27:00,75.0,73.2,30.03,SE,135,6.0,-999.0,94,-99.99,,,-99.99,meteohub,2013-08-15 06:27:00,
2013-08-15 02:32:00,75.0,73.4,30.03,SE,135,9.0,-999.0,95,-99.99,,,-99.99,meteohub,2013-08-15 06:32:00,
2013-08-15 02:37:00,75.0,73.4,30.03,SE,135,7.0,-999.0,95,-99.99,,,-99.99,meteohub,2013-08-15 06:37:00,
2013-08-15 02:42:00,75.0,75.0,30.01,SSE,157,6.0,-999.0,100,-99.99,,,-99.99,meteohub,2013-08-15 06:42:00,
2013-08-15 02:47:00,75.0,73.8,30.01,NW,315,6.0,-999.0,96,-99.99,,,-99.99,meteohub,2013-08-15 06:47:00,
2013-08-15 02:52:00,75.0,73.8,30.01,NE,45,6.0,-999.0,96,-99.99,,,-99.99,meteohub,2013-08-15 06:52:00,
2013-08-15 02:57:00,75.0,73.8,30.01,NE,45,1.0,-999.0,96,-99.99,,,-99.99,meteohub,2013-08-15 06:57:00,
2013-08-15 03:02:00,75.0,73.8,30.01,NE,45,3.0,-999.0,96,-99.99,,,-99.99,meteohub,2013-08-15 07:02:00,
2013-08-15 03:07:00,75.0,73.8,30.01,NE,45,4.0,-999.0,96,-99.99,,,-99.99,meteohub,2013-08-15 07:07:00,
2013-08-15 03:12:00,75.0,73.8,30.00,NE,45,0.0,-999.0,96,-99.99,,,-99.99,meteohub,2013-08-15 07:12:00,
2013-08-15 03:17:00,73.9,73.9,30.00,NE,45,0.0,-999.0,100,-99.99,,,-99.99,meteohub,2013-08-15 07:17:00,
2013-08-15 03:22:00,75.0,73.8,30.00,NE,45,3.0,-999.0,96,-99.99,,,-99.99,meteohub,2013-08-15 07:22:00,
2013-08-15 03:27:00,75.0,73.8,30.00,NE,45,2.0,-999.0,96,-99.99,,,-99.99,meteohub,2013-08-15 07:27:00,
2013-08-15 03:32:00,75.0,73.8,30.01,NE,45,6.0,-999.0,96,-99.99,,,-99.99,meteohub,2013-08-15 07:32:00,
2013-08-15 03:37:00,75.0,75.0,30.01,SE,135,9.0,-999.0,100,-99.99,,,-99.99,meteohub,2013-08-15 07:37:00,
2013-08-15 03:42:00,75.9,75.0,30.01,SE,135,4.0,-999.0,97,-99.99,,,-99.99,meteohub,2013-08-15 07:42:00,
2013-08-15 03:47:00,75.9,75.0,30.01,South,180,10.0,-999.0,97,-99.99,,,-99.99,meteohub,2013-08-15 07:47:00,
2013-08-15 03:52:00,75.9,75.0,30.03,South,180,7.0,-999.0,97,-99.99,,,-99.99,meteohub,2013-08-15 07:52:00,
2013-08-15 03:58:00,75.9,74.3,30.03,SSW,202,8.0,-999.0,95,-99.99,,,-99.99,meteohub,2013-08-15 07:58:00,
2013-08-15 04:03:00,75.9,74.3,30.01,South,180,7.0,-999.0,95,-99.99,,,-99.99,meteohub,2013-08-15 08:03:00,
2013-08-15 04:08:00,75.9,74.3,30.03,SSE,157,9.0,-999.0,95,-99.99,,,-99.99,meteohub,2013-08-15 08:08:00,
2013-08-15 04:13:00,75.0,75.0,30.01,SW,225,6.0,-999.0,100,-99.99,,,-99.99,meteohub,2013-08-15 08:13:00,
2013-08-15 04:18:00,75.9,74.1,30.01,WSW,247,10.0,-999.0,94,-99.99,,,-99.99,meteohub,2013-08-15 08:18:00,
2013-08-15 04:23:00,75.9,73.8,30.01,SW,225,7.0,-999.0,93,-99.99,,,-99.99,meteohub,2013-08-15 08:23:00,
2013-08-15 04:28:00,75.9,73.8,30.01,SW,225,9.0,-999.0,93,-99.99,,,-99.99,meteohub,2013-08-15 08:28:00,
2013-08-15 04:33:00,75.9,75.6,30.01,SSW,202,6.0,-999.0,99,-99.99,,,-99.99,meteohub,2013-08-15 08:33:00,
2013-08-15 04:38:00,75.9,73.8,30.01,South,180,6.0,-999.0,93,-99.99,,,-99.99,meteohub,2013-08-15 08:38:00,
2013-08-15 04:43:00,75.9,73.4,30.01,South,180,6.0,-999.0,92,-99.99,,,-99.99,meteohub,2013-08-15 08:43:00,
2013-08-15 04:48:00,75.9,73.8,30.03,SE,135,6.0,-999.0,93,-99.99,,,-99.99,meteohub,2013-08-15 08:48:00,
2013-08-15 04:53:00,75.9,73.4,30.03,SE,135,8.0,-999.0,92,-99.99,,,-99.99,meteohub,2013-08-15 08:53:00,
2013-08-15 04:59:00,75.9,73.4,30.01,SE,135,4.0,-999.0,92,-99.99,,,-99.99,meteohub,2013-08-15 08:59:00,
2013-08-15 05:04:00,75.9,73.4,30.01,South,180,4.0,-999.0,92,-99.99,,,-99.99,meteohub,2013-08-15 09:04:00,
2013-08-15 05:09:00,75.0,74.5,30.01,SE,135,5.0,-999.0,98,-99.99,,,-99.99,meteohub,2013-08-15 09:09:00,
2013-08-15 05:14:00,75.9,73.4,30.01,SE,135,7.0,-999.0,92,-99.99,,,-99.99,meteohub,2013-08-15 09:14:00,
2013-08-15 05:19:00,75.9,73.0,30.01,SE,135,7.0,-999.0,91,-99.99,,,-99.99,meteohub,2013-08-15 09:19:00,
2013-08-15 05:24:00,75.9,73.4,30.01,SE,135,10.0,-999.0,92,-99.99,,,-99.99,meteohub,2013-08-15 09:24:00,
2013-08-15 05:29:00,75.9,75.4,30.01,SE,135,10.0,-999.0,98,-99.99,,,-99.99,meteohub,2013-08-15 09:29:00,
2013-08-15 05:34:00,77.0,74.5,30.01,SE,135,10.0,-999.0,92,-99.99,,,-99.99,meteohub,2013-08-15 09:34:00,
2013-08-15 05:39:00,77.0,74.5,30.01,NE,45,7.0,-999.0,92,-99.99,,,-99.99,meteohub,2013-08-15 09:39:00,
2013-08-15 05:45:00,77.0,74.8,30.00,SE,135,7.0,-999.0,93,-99.99,,,-99.99,meteohub,2013-08-15 09:45:00,
2013-08-15 05:50:00,77.0,74.5,30.00,NE,45,3.0,-999.0,92,-99.99,,,-99.99,meteohub,2013-08-15 09:50:00,
2013-08-15 05:55:00,75.9,73.4,30.00,NE,45,3.0,-999.0,92,-99.99,,,-99.99,meteohub,2013-08-15 09:55:00,
2013-08-15 06:00:00,75.9,73.8,29.99,NE,45,1.0,-999.0,93,-99.99,,,-99.99,meteohub,2013-08-15 10:00:00,
2013-08-15 06:05:00,75.0,74.7,29.99,NE,45,3.0,-999.0,99,-99.99,,,-99.99,meteohub,2013-08-15 10:05:00,
2013-08-15 06:10:00,75.9,73.8,29.99,NE,45,3.0,-999.0,93,-99.99,,,-99.99,meteohub,2013-08-15 10:10:00,
2013-08-15 06:15:00,75.9,74.3,29.98,NE,45,4.0,-999.0,95,-99.99,,,-99.99,meteohub,2013-08-15 10:15:00,
2013-08-15 06:20:00,77.0,75.4,29.98,SE,135,7.0,-999.0,95,-99.99,,,-99.99,meteohub,2013-08-15 10:20:00,
2013-08-15 06:25:00,75.9,75.9,29.98,SE,135,6.0,-999.0,100,-99.99,,,-99.99,meteohub,2013-08-15 10:25:00,
2013-08-15 06:30:00,77.0,74.8,29.98,SE,135,10.0,-999.0,93,-99.99,,,-99.99,meteohub,2013-08-15 10:30:00,
2013-08-15 06:36:00,77.0,74.8,29.99,SE,135,9.0,-999.0,93,-99.99,,,-99.99,meteohub,2013-08-15 10:36:00,
2013-08-15 06:41:00,77.0,75.2,29.99,SE,135,11.0,-999.0,94,-99.99,,,-99.99,meteohub,2013-08-15 10:41:00,
2013-08-15 06:46:00,77.0,74.8,29.99,SE,135,10.0,-999.0,93,-99.99,,,-99.99,meteohub,2013-08-15 10:46:00,
2013-08-15 06:51:00,77.0,74.8,29.99,SE,135,12.0,-999.0,93,-99.99,,,-99.99,meteohub,2013-08-15 10:51:00,
2013-08-15 06:56:00,77.0,74.1,29.99,SE,135,7.0,-999.0,91,-99.99,,,-99.99,meteohub,2013-08-15 10:56:00,
2013-08-15 07:01:00,78.1,75.2,29.99,SE,135,7.0,-999.0,91,-99.99,,,-99.99,meteohub,2013-08-15 11:01:00,
2013-08-15 07:06:00,78.1,74.3,29.99,SE,135,9.0,-999.0,88,-99.99,,,-99.99,meteohub,2013-08-15 11:06:00,
2013-08-15 07:11:00,78.1,74.3,29.99,SE,135,12.0,-999.0,88,-99.99,,,-99.99,meteohub,2013-08-15 11:11:00,
2013-08-15 07:16:00,78.1,74.3,30.00,SE,135,8.0,-999.0,88,-99.99,,,-99.99,meteohub,2013-08-15 11:16:00,
2013-08-15 07:21:00,78.1,76.5,30.00,SE,135,8.0,-999.0,95,-99.99,,,-99.99,meteohub,2013-08-15 11:21:00,
2013-08-15 07:27:00,78.1,74.3,30.00,SE,135,12.0,-999.0,88,-99.99,,,-99.99,meteohub,2013-08-15 11:27:00,
2013-08-15 07:32:00,79.0,75.4,30.00,SE,135,11.0,-999.0,89,-99.99,,,-99.99,meteohub,2013-08-15 11:32:00,
2013-08-15 07:37:00,78.1,74.5,30.00,SE,135,9.0,-999.0,89,-99.99,,,-99.99,meteohub,2013-08-15 11:37:00,
2013-08-15 07:42:00,79.0,75.2,30.00,SE,135,9.0,-999.0,88,-99.99,,,-99.99,meteohub,2013-08-15 11:42:00,
2013-08-15 07:47:00,79.0,75.2,30.00,SE,135,8.0,-999.0,88,-99.99,,,-99.99,meteohub,2013-08-15 11:47:00,
2013-08-15 07:52:00,79.0,75.4,30.01,SE,135,8.0,-999.0,89,-99.99,,,-99.99,meteohub,2013-08-15 11:52:00,
2013-08-15 07:57:00,79.0,77.4,30.01,SE,135,6.0,-999.0,95,-99.99,,,-99.99,meteohub,2013-08-15 11:57:00,
2013-08-15 08:02:00,79.0,75.2,30.01,SE,135,7.0,-999.0,88,-99.99,,,-99.99,meteohub,2013-08-15 12:02:00,
2013-08-15 08:07:00,80.1,76.1,30.01,SE,135,7.0,-999.0,88,-99.99,,,-99.99,meteohub,2013-08-15 12:07:00,
2013-08-15 08:12:00,79.0,75.2,30.01,SE,135,6.0,-999.0,88,-99.99,,,-99.99,meteohub,2013-08-15 12:12:00,
2013-08-15 08:17:00,79.0,75.2,30.01,NE,45,2.0,-999.0,88,-99.99,,,-99.99,meteohub,2013-08-15 12:17:00,
2013-08-15 08:22:00,79.0,75.2,30.01,NE,45,5.0,-999.0,88,-99.99,,,-99.99,meteohub,2013-08-15 12:22:00,
2013-08-15 08:27:00,79.0,75.4,30.01,NE,45,3.0,-999.0,89,-99.99,,,-99.99,meteohub,2013-08-15 12:27:00,
2013-08-15 08:32:00,79.0,77.4,30.01,NE,45,6.0,-999.0,95,-99.99,,,-99.99,meteohub,2013-08-15 12:32:00,
2013-08-15 08:37:00,79.0,75.4,30.01,NE,45,4.0,-999.0,89,-99.99,,,-99.99,meteohub,2013-08-15 12:37:00,
2013-08-15 08:42:00,79.0,75.4,30.03,NE,45,6.0,-999.0,89,-99.99,,,-99.99,meteohub,2013-08-15 12:42:00,
2013-08-15 08:47:00,79.0,75.4,30.03,NE,45,7.0,-999.0,89,-99.99,,,-99.99,meteohub,2013-08-15 12:47:00,
2013-08-15 08:52:00,80.1,76.1,30.03,NE,45,6.0,-999.0,88,-99.99,,,-99.99,meteohub,2013-08-15 12:52:00,
2013-08-15 08:57:00,80.1,76.1,30.03,SE,135,6.0,-999.0,88,-99.99,,,-99.99,meteohub,2013-08-15 12:57:00,
2013-08-15 09:02:00,80.1,76.1,30.03,NE,45,5.0,-999.0,88,-99.99,,,-99.99,meteohub,2013-08-15 13:02:00,
2013-08-15 09:07:00,79.0,76.8,30.04,SE,135,9.0,-999.0,93,-99.99,,,-99.99,meteohub,2013-08-15 13:07:00,
2013-08-15 09:12:00,80.1,76.1,30.04,SE,135,7.0,-999.0,88,-99.99,,,-99.99,meteohub,2013-08-15 13:12:00,
2013-08-15 09:17:00,80.1,75.9,30.04,SE,135,7.0,-999.0,87,-99.99,,,-99.99,meteohub,2013-08-15 13:17:00,
2013-08-15 09:22:00,80.1,75.9,30.04,SE,135,7.0,-999.0,87,-99.99,,,-99.99,meteohub,2013-08-15 13:22:00,
2013-08-15 09:27:00,79.0,76.5,30.04,SE,135,7.0,-999.0,92,-99.99,,,-99.99,meteohub,2013-08-15 13:27:00,
2013-08-15 09:32:00,80.1,75.6,30.04,SE,135,7.0,-999.0,86,-99.99,,,-99.99,meteohub,2013-08-15 13:32:00,
2013-08-15 09:37:00,80.1,75.6,30.04,SE,135,7.0,-999.0,86,-99.99,,,-99.99,meteohub,2013-08-15 13:37:00,
2013-08-15 09:42:00,80.1,75.6,30.04,NE,45,4.0,-999.0,86,-99.99,,,-99.99,meteohub,2013-08-15 13:42:00,
2013-08-15 09:48:00,80.1,75.2,30.04,SE,135,5.0,-999.0,85,-99.99,,,-99.99,meteohub,2013-08-15 13:48:00,
2013-08-15 09:53:00,80.1,75.2,30.04,SE,135,4.0,-999.0,85,-99.99,,,-99.99,meteohub,2013-08-15 13:53:00,
2013-08-15 09:58:00,80.1,75.2,30.04,NE,45,0.0,-999.0,85,-99.99,,,-99.99,meteohub,2013-08-15 13:58:00,
2013-08-15 10:03:00,80.1,77.2,30.04,NE,45,6.0,-999.0,91,-99.99,,,-99.99,meteohub,2013-08-15 14:03:00,
2013-08-15 10:08:00,80.1,74.8,30.04,NE,45,7.0,-999.0,84,-99.99,,,-99.99,meteohub,2013-08-15 14:08:00,
2013-08-15 10:13:00,80.1,75.2,30.04,SE,135,4.0,-999.0,85,-99.99,,,-99.99,meteohub,2013-08-15 14:13:00,
2013-08-15 10:18:00,80.1,75.2,30.04,SE,135,3.0,-999.0,85,-99.99,,,-99.99,meteohub,2013-08-15 14:18:00,
2013-08-15 10:23:00,80.1,77.5,30.06,NE,45,4.0,-999.0,92,-99.99,,,-99.99,meteohub,2013-08-15 14:23:00,
2013-08-15 10:28:00,80.1,75.2,30.06,NE,45,5.0,-999.0,85,-99.99,,,-99.99,meteohub,2013-08-15 14:28:00,
2013-08-15 10:33:00,80.1,75.2,30.06,NE,45,3.0,-999.0,85,-99.99,,,-99.99,meteohub,2013-08-15 14:33:00,
2013-08-15 10:39:00,80.1,75.2,30.06,NE,45,3.0,-999.0,85,-99.99,,,-99.99,meteohub,2013-08-15 14:39:00,
2013-08-15 10:44:00,80.1,75.2,30.06,NE,45,5.0,-999.0,85,-99.99,,,-99.99,meteohub,2013-08-15 14:44:00,
2013-08-15 10:49:00,80.1,75.2,30.06,NE,45,4.0,-999.0,85,-99.99,,,-99.99,meteohub,2013-08-15 14:49:00,
2013-08-15 10:55:00,81.0,76.1,30.06,NE,45,2.0,-999.0,85,-99.99,,,-99.99,meteohub,2013-08-15 14:55:00,
2013-08-15 11:00:00,81.0,76.1,30.06,NE,45,6.0,-999.0,85,-99.99,,,-99.99,meteohub,2013-08-15 15:00:00,
2013-08-15 11:05:00,80.1,76.8,30.06,NE,45,4.0,-999.0,90,-99.99,,,-99.99,meteohub,2013-08-15 15:05:00,
2013-08-15 11:10:00,81.0,75.4,30.06,SE,135,6.0,-999.0,83,-99.99,,,-99.99,meteohub,2013-08-15 15:10:00,
2013-08-15 11:16:00,81.0,75.7,30.06,NE,45,2.0,-999.0,84,-99.99,,,-99.99,meteohub,2013-08-15 15:16:00,
2013-08-15 11:21:00,82.0,76.6,30.06,NE,45,6.0,-999.0,84,-99.99,,,-99.99,meteohub,2013-08-15 15:21:00,
2013-08-15 11:26:00,81.0,75.4,30.06,NE,45,3.0,-999.0,83,-99.99,,,-99.99,meteohub,2013-08-15 15:26:00,
2013-08-15 11:31:00,81.0,75.0,30.08,SE,135,3.0,-999.0,82,-99.99,,,-99.99,meteohub,2013-08-15 15:31:00,
2013-08-15 11:36:00,81.0,75.0,30.06,NE,45,7.0,-999.0,82,-99.99,,,-99.99,meteohub,2013-08-15 15:36:00,
2013-08-15 11:41:00,81.0,75.4,30.08,NE,45,5.0,-999.0,83,-99.99,,,-99.99,meteohub,2013-08-15 15:41:00,
2013-08-15 11:46:00,81.0,75.4,30.08,NE,45,7.0,-999.0,83,-99.99,,,-99.99,meteohub,2013-08-15 15:46:00,
2013-08-15 11:52:00,81.0,75.4,30.08,NE,45,1.0,-999.0,83,-99.99,,,-99.99,meteohub,2013-08-15 15:52:00,
2013-08-15 11:57:00,81.0,75.4,30.08,NE,45,3.0,-999.0,83,-99.99,,,-99.99,meteohub,2013-08-15 15:57:00,
2013-08-15 12:02:00,81.0,75.0,30.06,NE,45,5.0,-999.0,82,-99.99,,,-99.99,meteohub,2013-08-15 16:02:00,
2013-08-15 12:07:00,81.0,74.7,30.06,NE,45,4.0,-999.0,81,-99.99,,,-99.99,meteohub,2013-08-15 16:07:00,
2013-08-15 12:13:00,81.0,74.7,30.06,NE,45,5.0,-999.0,81,-99.99,,,-99.99,meteohub,2013-08-15 16:13:00,
2013-08-15 12:18:00,81.0,74.7,30.06,NE,45,2.0,-999.0,81,-99.99,,,-99.99,meteohub,2013-08-15 16:18:00,
2013-08-15 12:23:00,82.0,75.6,30.06,SE,135,4.0,-999.0,81,-99.99,,,-99.99,meteohub,2013-08-15 16:23:00,
2013-08-15 12:28:00,82.0,75.6,30.06,SE,135,6.0,-999.0,81,-99.99,,,-99.99,meteohub,2013-08-15 16:28:00,
2013-08-15 12:34:00,82.0,75.2,30.06,SE,135,3.0,-999.0,80,-99.99,,,-99.99,meteohub,2013-08-15 16:34:00,
2013-08-15 12:39:00,82.0,74.8,30.06,SE,135,6.0,-999.0,79,-99.99,,,-99.99,meteohub,2013-08-15 16:39:00,
2013-08-15 12:44:00,82.0,77.0,30.06,SE,135,5.0,-999.0,85,-99.99,,,-99.99,meteohub,2013-08-15 16:44:00,
2013-08-15 12:49:00,82.0,75.2,30.06,SE,135,4.0,-999.0,80,-99.99,,,-99.99,meteohub,2013-08-15 16:49:00,
2013-08-15 12:54:00,82.0,74.8,30.06,SE,135,5.0,-999.0,79,-99.99,,,-99.99,meteohub,2013-08-15 16:54:00,
2013-08-15 12:59:00,82.0,74.1,30.06,SE,135,4.0,-999.0,77,-99.99,,,-99.99,meteohub,2013-08-15 16:59:00,
2013-08-15 13:04:00,82.0,75.9,30.04,SE,135,4.0,-999.0,82,-99.99,,,-99.99,meteohub,2013-08-15 17:04:00,
2013-08-15 13:09:00,82.0,74.1,30.04,SE,135,6.0,-999.0,77,-99.99,,,-99.99,meteohub,2013-08-15 17:09:00,
2013-08-15 13:14:00,82.0,74.1,30.04,SE,135,4.0,-999.0,77,-99.99,,,-99.99,meteohub,2013-08-15 17:14:00,
2013-08-15 13:19:00,82.0,73.8,30.06,SE,135,3.0,-999.0,76,-99.99,,,-99.99,meteohub,2013-08-15 17:19:00,
2013-08-15 13:25:00,82.0,73.4,30.06,SE,135,5.0,-999.0,75,-99.99,,,-99.99,meteohub,2013-08-15 17:25:00,
2013-08-15 13:31:00,82.0,73.8,30.06,SE,135,5.0,-999.0,76,-99.99,,,-99.99,meteohub,2013-08-15 17:31:00,
2013-08-15 13:36:00,82.0,73.4,30.06,SE,135,3.0,-999.0,75,-99.99,,,-99.99,meteohub,2013-08-15 17:36:00,
2013-08-15 13:41:00,82.0,73.8,30.06,SE,135,5.0,-999.0,76,-99.99,,,-99.99,meteohub,2013-08-15 17:41:00,
2013-08-15 13:47:00,82.0,75.6,30.04,SE,135,3.0,-999.0,81,-99.99,,,-99.99,meteohub,2013-08-15 17:47:00,
2013-08-15 13:52:00,82.0,73.8,30.04,SE,135,4.0,-999.0,76,-99.99,,,-99.99,meteohub,2013-08-15 17:52:00,
2013-08-15 13:57:00,82.0,73.8,30.04,SE,135,2.0,-999.0,76,-99.99,,,-99.99,meteohub,2013-08-15 17:57:00,
2013-08-15 14:03:00,82.0,73.8,30.04,SE,135,3.0,-999.0,76,-99.99,,,-99.99,meteohub,2013-08-15 18:03:00,
2013-08-15 14:08:00,82.0,74.1,30.04,SE,135,2.0,-999.0,77,-99.99,,,-99.99,meteohub,2013-08-15 18:08:00,
2013-08-15 14:13:00,82.0,73.8,30.04,SE,135,5.0,-999.0,76,-99.99,,,-99.99,meteohub,2013-08-15 18:13:00,
2013-08-15 14:19:00,82.0,73.4,30.04,SE,135,3.0,-999.0,75,-99.99,,,-99.99,meteohub,2013-08-15 18:19:00,
2013-08-15 14:24:00,82.0,73.8,30.04,SE,135,2.0,-999.0,76,-99.99,,,-99.99,meteohub,2013-08-15 18:24:00,
2013-08-15 14:25:00,82.0,72.9,30.04,SE,135,3.0,-999.0,74,-99.99,,,-99.99,meteohub,2013-08-15 18:25:00,
2013-08-15 14:33:00,82.0,72.9,30.04,SE,135,2.0,-999.0,74,-99.99,,,-99.99,meteohub,2013-08-15 18:33:00,
2013-08-15 14:41:00,82.0,73.4,30.04,SW,225,4.0,-999.0,75,-99.99,,,-99.99,meteohub,2013-08-15 18:41:00,
2013-08-15 14:46:00,82.0,73.8,30.04,WSW,247,6.0,-999.0,76,-99.99,,,-99.99,meteohub,2013-08-15 18:46:00,
2013-08-15 14:51:00,82.0,73.8,30.04,WSW,247,5.0,-999.0,76,-99.99,,,-99.99,meteohub,2013-08-15 18:51:00,
2013-08-15 14:57:00,82.0,75.6,30.04,SW,225,3.0,-999.0,81,-99.99,,,-99.99,meteohub,2013-08-15 18:57:00,
2013-08-15 15:02:00,82.0,72.9,30.04,South,180,4.0,-999.0,74,-99.99,,,-99.99,meteohub,2013-08-15 19:02:00,
2013-08-15 15:07:00,82.9,73.8,30.04,SE,135,5.0,-999.0,74,-99.99,,,-99.99,meteohub,2013-08-15 19:07:00,
2013-08-15 15:12:00,82.9,73.4,30.04,SE,135,0.0,-999.0,73,-99.99,,,-99.99,meteohub,2013-08-15 19:12:00,
2013-08-15 15:17:00,82.9,73.8,30.04,SW,225,3.0,-999.0,74,-99.99,,,-99.99,meteohub,2013-08-15 19:17:00,
2013-08-15 15:26:00,82.9,73.0,30.04,WSW,247,5.0,-999.0,72,-99.99,,,-99.99,meteohub,2013-08-15 19:26:00,
2013-08-15 15:32:00,82.9,74.1,30.03,SSW,202,4.0,-999.0,75,-99.99,,,-99.99,meteohub,2013-08-15 19:32:00,
2013-08-15 15:37:00,82.9,73.0,30.03,SW,225,3.0,-999.0,72,-99.99,,,-99.99,meteohub,2013-08-15 19:37:00,
2013-08-15 15:42:00,82.9,73.0,30.03,SSW,202,1.0,-999.0,72,-99.99,,,-99.99,meteohub,2013-08-15 19:42:00,
2013-08-15 15:47:00,82.9,73.0,30.03,WSW,247,6.0,-999.0,72,-99.99,,,-99.99,meteohub,2013-08-15 19:47:00,
2013-08-15 15:52:00,82.0,72.1,30.03,WSW,247,5.0,-999.0,72,-99.99,,,-99.99,meteohub,2013-08-15 19:52:00,
2013-08-15 15:57:00,82.0,72.1,30.03,WSW,247,6.0,-999.0,72,-99.99,,,-99.99,meteohub,2013-08-15 19:57:00,
2013-08-15 16:03:00,82.0,73.4,30.03,SW,225,4.0,-999.0,75,-99.99,,,-99.99,meteohub,2013-08-15 20:03:00,
2013-08-15 16:12:00,82.0,73.8,30.03,South,180,5.0,-999.0,76,-99.99,,,-99.99,meteohub,2013-08-15 20:12:00,
2013-08-15 16:19:00,82.0,74.1,30.01,South,180,5.0,-999.0,77,-99.99,,,-99.99,meteohub,2013-08-15 20:19:00,
2013-08-15 16:24:00,82.0,74.1,30.01,South,180,6.0,-999.0,77,-99.99,,,-99.99,meteohub,2013-08-15 20:24:00,
2013-08-15 16:29:00,81.0,72.7,30.01,South,180,6.0,-999.0,76,-99.99,,,-99.99,meteohub,2013-08-15 20:29:00,
2013-08-15 16:35:00,82.0,75.2,30.01,South,180,2.0,-999.0,80,-99.99,,,-99.99,meteohub,2013-08-15 20:35:00,
2013-08-15 16:40:00,82.0,73.4,30.01,South,180,6.0,-999.0,75,-99.99,,,-99.99,meteohub,2013-08-15 20:40:00,
2013-08-15 16:45:00,82.0,72.9,30.01,South,180,4.0,-999.0,74,-99.99,,,-99.99,meteohub,2013-08-15 20:45:00,
2013-08-15 16:50:00,82.0,72.1,30.01,SSE,157,4.0,-999.0,72,-99.99,,,-99.99,meteohub,2013-08-15 20:50:00,
2013-08-15 16:57:00,82.9,73.4,30.01,SW,225,5.0,-999.0,73,-99.99,,,-99.99,meteohub,2013-08-15 20:57:00,
2013-08-15 17:02:00,82.9,74.7,30.01,South,180,5.0,-999.0,76,-99.99,,,-99.99,meteohub,2013-08-15 21:02:00,
2013-08-15 17:07:00,82.9,72.5,30.01,SW,225,6.0,-999.0,71,-99.99,,,-99.99,meteohub,2013-08-15 21:07:00,
2013-08-15 17:12:00,82.9,72.5,30.01,SW,225,6.0,-999.0,71,-99.99,,,-99.99,meteohub,2013-08-15 21:12:00,
2013-08-15 17:18:00,82.9,72.5,30.01,SW,225,3.0,-999.0,71,-99.99,,,-99.99,meteohub,2013-08-15 21:18:00,
2013-08-15 17:23:00,82.9,72.1,30.01,SW,225,4.0,-999.0,70,-99.99,,,-99.99,meteohub,2013-08-15 21:23:00,
2013-08-15 17:30:00,84.0,73.9,30.01,SW,225,0.0,-999.0,72,-99.99,,,-99.99,meteohub,2013-08-15 21:30:00,
2013-08-15 17:35:00,84.0,72.7,30.01,West,270,3.0,-999.0,69,-99.99,,,-99.99,meteohub,2013-08-15 21:35:00,
2013-08-15 17:40:00,84.9,73.6,30.01,West,270,5.0,-999.0,69,-99.99,,,-99.99,meteohub,2013-08-15 21:40:00,
2013-08-15 17:45:00,84.9,74.1,30.01,West,270,4.0,-999.0,70,-99.99,,,-99.99,meteohub,2013-08-15 21:45:00,
2013-08-15 17:50:00,84.9,71.8,30.01,West,270,5.0,-999.0,65,-99.99,,,-99.99,meteohub,2013-08-15 21:50:00,
2013-08-15 17:56:00,84.0,71.1,30.01,West,270,4.0,-999.0,65,-99.99,,,-99.99,meteohub,2013-08-15 21:56:00,
2013-08-15 18:02:00,84.0,72.0,30.01,West,270,3.0,-999.0,67,-99.99,,,-99.99,meteohub,2013-08-15 22:02:00,
2013-08-15 18:07:00,84.0,72.0,30.01,West,270,6.0,-999.0,67,-99.99,,,-99.99,meteohub,2013-08-15 22:07:00,
2013-08-15 18:12:00,84.0,72.3,30.01,West,270,4.0,-999.0,68,-99.99,,,-99.99,meteohub,2013-08-15 22:12:00,
2013-08-15 18:17:00,84.0,72.0,30.01,West,270,5.0,-999.0,67,-99.99,,,-99.99,meteohub,2013-08-15 22:17:00,
2013-08-15 18:23:00,84.0,72.7,30.01,West,270,3.0,-999.0,69,-99.99,,,-99.99,meteohub,2013-08-15 22:23:00,
2013-08-15 18:28:00,84.9,73.2,30.01,SW,225,5.0,-999.0,68,-99.99,,,-99.99,meteohub,2013-08-15 22:28:00,
2013-08-15 18:33:00,84.0,72.7,30.01,WSW,247,6.0,-999.0,69,-99.99,,,-99.99,meteohub,2013-08-15 22:33:00,
2013-08-15 18:38:00,84.0,73.2,30.01,SSW,202,6.0,-999.0,70,-99.99,,,-99.99,meteohub,2013-08-15 22:38:00,
2013-08-15 18:43:00,84.0,72.3,30.01,SW,225,4.0,-999.0,68,-99.99,,,-99.99,meteohub,2013-08-15 22:43:00,
2013-08-15 18:49:00,84.0,72.3,30.01,SW,225,2.0,-999.0,68,-99.99,,,-99.99,meteohub,2013-08-15 22:49:00,
2013-08-15 18:54:00,84.0,72.7,30.01,SW,225,6.0,-999.0,69,-99.99,,,-99.99,meteohub,2013-08-15 22:54:00,
2013-08-15 18:59:00,84.0,73.2,30.01,SSW,202,5.0,-999.0,70,-99.99,,,-99.99,meteohub,2013-08-15 22:59:00,
2013-08-15 19:06:00,82.9,71.8,30.01,SW,225,3.0,-999.0,69,-99.99,,,-99.99,meteohub,2013-08-15 23:06:00,
2013-08-15 19:12:00,82.9,72.1,30.01,WSW,247,4.0,-999.0,70,-99.99,,,-99.99,meteohub,2013-08-15 23:12:00,
2013-08-15 19:17:00,82.9,72.1,30.01,WSW,247,6.0,-999.0,70,-99.99,,,-99.99,meteohub,2013-08-15 23:17:00,
2013-08-15 19:22:00,82.9,72.1,30.01,WSW,247,5.0,-999.0,70,-99.99,,,-99.99,meteohub,2013-08-15 23:22:00,
2013-08-15 19:27:00,82.0,71.8,30.01,WSW,247,5.0,-999.0,71,-99.99,,,-99.99,meteohub,2013-08-15 23:27:00,
2013-08-15 19:32:00,82.0,71.8,30.03,WSW,247,4.0,-999.0,71,-99.99,,,-99.99,meteohub,2013-08-15 23:32:00,
2013-08-15 19:37:00,82.0,72.5,30.03,WSW,247,5.0,-999.0,73,-99.99,,,-99.99,meteohub,2013-08-15 23:37:00,
2013-08-15 19:42:00,82.0,72.1,30.03,WSW,247,5.0,-999.0,72,-99.99,,,-99.99,meteohub,2013-08-15 23:42:00,
2013-08-15 19:47:00,82.0,72.1,30.03,WSW,247,4.0,-999.0,72,-99.99,,,-99.99,meteohub,2013-08-15 23:47:00,
2013-08-15 19:52:00,82.0,72.1,30.03,WSW,247,5.0,-999.0,72,-99.99,,,-99.99,meteohub,2013-08-15 23:52:00,
2013-08-15 19:57:00,82.0,72.9,30.04,WSW,247,6.0,-999.0,74,-99.99,,,-99.99,meteohub,2013-08-15 23:57:00,
2013-08-15 20:02:00,82.0,72.5,30.04,WSW,247,5.0,-999.0,73,-99.99,,,-99.99,meteohub,2013-08-16 00:02:00,
2013-08-15 20:07:00,82.0,72.5,30.04,WSW,247,5.0,-999.0,73,-99.99,,,-99.99,meteohub,2013-08-16 00:07:00,
2013-08-15 20:13:00,82.0,72.5,30.04,WSW,247,5.0,-999.0,73,-99.99,,,-99.99,meteohub,2013-08-16 00:13:00,
2013-08-15 20:18:00,82.0,72.5,30.04,WSW,247,5.0,-999.0,73,-99.99,,,-99.99,meteohub,2013-08-16 00:18:00,
2013-08-15 20:23:00,82.0,72.5,30.04,WSW,247,5.0,-999.0,73,-99.99,,,-99.99,meteohub,2013-08-16 00:23:00,
2013-08-15 20:28:00,82.0,72.5,30.04,WSW,247,5.0,-999.0,73,-99.99,,,-99.99,meteohub,2013-08-16 00:28:00,
2013-08-15 20:33:00,82.0,73.4,30.06,WSW,247,5.0,-999.0,75,-99.99,,,-99.99,meteohub,2013-08-16 00:33:00,
2013-08-15 20:41:00,82.0,72.1,30.06,WSW,247,4.0,-999.0,72,-99.99,,,-99.99,meteohub,2013-08-16 00:41:00,
2013-08-15 20:46:00,82.0,72.1,30.06,WSW,247,0.0,-999.0,72,-99.99,,,-99.99,meteohub,2013-08-16 00:46:00,
2013-08-15 20:51:00,82.0,72.5,30.06,WSW,247,1.0,-999.0,73,-99.99,,,-99.99,meteohub,2013-08-16 00:51:00,
2013-08-15 20:56:00,82.0,72.5,30.06,WSW,247,1.0,-999.0,73,-99.99,,,-99.99,meteohub,2013-08-16 00:56:00,
2013-08-15 21:02:00,82.0,72.5,30.06,WSW,247,1.0,-999.0,73,-99.99,,,-99.99,meteohub,2013-08-16 01:02:00,
2013-08-15 21:07:00,82.0,72.9,30.06,WSW,247,1.0,-999.0,74,-99.99,,,-99.99,meteohub,2013-08-16 01:07:00,
2013-08-15 21:12:00,82.0,72.9,30.08,SW,225,3.0,-999.0,74,-99.99,,,-99.99,meteohub,2013-08-16 01:12:00,
2013-08-15 21:17:00,82.0,72.9,30.08,South,180,4.0,-999.0,74,-99.99,,,-99.99,meteohub,2013-08-16 01:17:00,
2013-08-15 21:23:00,82.0,74.1,30.08,South,180,3.0,-999.0,77,-99.99,,,-99.99,meteohub,2013-08-16 01:23:00,
2013-08-15 21:28:00,82.0,74.8,30.08,SE,135,4.0,-999.0,79,-99.99,,,-99.99,meteohub,2013-08-16 01:28:00,
2013-08-15 21:34:00,82.0,73.8,30.08,SE,135,6.0,-999.0,76,-99.99,,,-99.99,meteohub,2013-08-16 01:34:00,
2013-08-15 21:39:00,82.0,73.8,30.09,SE,135,3.0,-999.0,76,-99.99,,,-99.99,meteohub,2013-08-16 01:39:00,
2013-08-15 21:44:00,82.0,73.8,30.09,SE,135,2.0,-999.0,76,-99.99,,,-99.99,meteohub,2013-08-16 01:44:00,
2013-08-15 21:49:00,82.0,75.6,30.09,SE,135,1.0,-999.0,81,-99.99,,,-99.99,meteohub,2013-08-16 01:49:00,
2013-08-15 21:54:00,82.0,74.1,30.09,SE,135,0.0,-999.0,77,-99.99,,,-99.99,meteohub,2013-08-16 01:54:00,
2013-08-15 21:59:00,81.0,73.0,30.09,SE,135,0.0,-999.0,77,-99.99,,,-99.99,meteohub,2013-08-16 01:59:00,
2013-08-15 22:05:00,81.0,73.8,30.09,NE,45,4.0,-999.0,79,-99.99,,,-99.99,meteohub,2013-08-16 02:05:00,
2013-08-15 22:10:00,81.0,73.8,30.09,NE,45,2.0,-999.0,79,-99.99,,,-99.99,meteohub,2013-08-16 02:10:00,
2013-08-15 22:15:00,81.0,73.8,30.09,NE,45,1.0,-999.0,79,-99.99,,,-99.99,meteohub,2013-08-16 02:15:00,
2013-08-15 22:20:00,81.0,73.8,30.09,NE,45,2.0,-999.0,79,-99.99,,,-99.99,meteohub,2013-08-16 02:20:00,
2013-08-15 22:25:00,81.0,75.7,30.09,NE,45,2.0,-999.0,84,-99.99,,,-99.99,meteohub,2013-08-16 02:25:00,
2013-08-15 22:30:00,81.0,74.1,30.09,NE,45,0.0,-999.0,80,-99.99,,,-99.99,meteohub,2013-08-16 02:30:00,
2013-08-15 22:35:00,81.0,74.7,30.09,NE,45,2.0,-999.0,81,-99.99,,,-99.99,meteohub,2013-08-16 02:35:00,
2013-08-15 22:41:00,81.0,74.1,30.09,NE,45,1.0,-999.0,80,-99.99,,,-99.99,meteohub,2013-08-16 02:41:00,
2013-08-15 22:46:00,81.0,76.1,30.09,NE,45,2.0,-999.0,85,-99.99,,,-99.99,meteohub,2013-08-16 02:46:00,
2013-08-15 22:51:00,81.0,74.7,30.09,NE,45,1.0,-999.0,81,-99.99,,,-99.99,meteohub,2013-08-16 02:51:00,
2013-08-15 22:56:00,81.0,74.7,30.09,NE,45,5.0,-999.0,81,-99.99,,,-99.99,meteohub,2013-08-16 02:56:00,
2013-08-15 23:01:00,81.0,74.1,30.09,NE,45,3.0,-999.0,80,-99.99,,,-99.99,meteohub,2013-08-16 03:01:00,
2013-08-15 23:06:00,81.0,75.7,30.09,NE,45,1.0,-999.0,84,-99.99,,,-99.99,meteohub,2013-08-16 03:06:00,
2013-08-15 23:11:00,81.0,73.8,30.09,NE,45,2.0,-999.0,79,-99.99,,,-99.99,meteohub,2013-08-16 03:11:00,
2013-08-15 23:16:00,81.0,73.8,30.09,NE,45,1.0,-999.0,79,-99.99,,,-99.99,meteohub,2013-08-16 03:16:00,
2013-08-15 23:21:00,81.0,74.1,30.09,NE,45,1.0,-999.0,80,-99.99,,,-99.99,meteohub,2013-08-16 03:21:00,
2013-08-15 23:26:00,81.0,74.1,30.09,NE,45,0.0,-999.0,80,-99.99,,,-99.99,meteohub,2013-08-16 03:26:00,
2013-08-15 23:32:00,81.0,74.7,30.09,NE,45,1.0,-999.0,81,-99.99,,,-99.99,meteohub,2013-08-16 03:32:00,
2013-08-15 23:37:00,80.1,73.8,30.09,NE,45,0.0,-999.0,81,-99.99,,,-99.99,meteohub,2013-08-16 03:37:00,
2013-08-15 23:42:00,80.1,75.6,30.09,NE,45,0.0,-999.0,86,-99.99,,,-99.99,meteohub,2013-08-16 03:42:00,
2013-08-15 23:47:00,80.1,74.1,30.09,NE,45,2.0,-999.0,82,-99.99,,,-99.99,meteohub,2013-08-16 03:47:00,
2013-08-15 23:52:00,80.1,74.5,30.09,NE,45,0.0,-999.0,83,-99.99,,,-99.99,meteohub,2013-08-16 03:52:00,
2013-08-15 23:57:00,80.1,74.5,30.09,NE,45,2.0,-999.0,83,-99.99,,,-99.99,meteohub,2013-08-16 03:57:00,